Station CLSM4 - St. Clair Shores, MI Image indicating link to RSS feed of recent meteorological observations for station CLSM4


Conditions at CLSM4 as of
(1:00 pm EDT)
1700 GMT on 04/18/2024:
     

Click on the graph icon in the table below to see a time series plot of the last five days of that observation.

5-day plot - Wind Direction Wind Direction (WDIR): W ( 260 deg true )
5-day plot - Wind Speed Wind Speed (WSPD): 8.0 kts
5-day plot - Wind Gust Wind Gust (GST): 12.0 kts
5-day plot - Atmospheric Pressure Atmospheric Pressure (PRES):30.06 in
5-day plot - Pressure Tendency Pressure Tendency (PTDY):+0.02 in ( Rising )
5-day plot - Air Temperature Air Temperature (ATMP): 58.5 °F
5-day plot - Wind Speed at 10 Meters Wind Speed at 10 meters (WSPD10M): 7.8 kts
5-day plot - Wind Speed at 20 Meters Wind Speed at 20 meters (WSPD20M): 9.7 kts
5-day plot -  Wind Speed, Wind Gust and Atmospheric Pressure Combined plot of Wind Speed, Gust, and Air Pressure
Previous observations
TIME
(EDT)
5-day plot - Wind Direction
WDIR
 
5-day plot - Wind Speed
WSPD
kts
5-day plot - Wind Gust
GST
kts
5-day plot - Wave Height
WVHT
ft
5-day plot - Dominant Wave Period
DPD
sec
5-day plot - Average Wave Period
APD
sec
5-day plot - Mean Wave Direction
MWD
 
5-day plot - Atmospheric Pressure
PRES
in
5-day plot - Pressure Tendency
PTDY
in
5-day plot - Air Temperature
ATMP
°F
5-day plot - Water Temperature
WTMP
°F
5-day plot - Dew Point
DEWP
°F
5-day plot - Salinity
SAL
psu
5-day plot - Visibility
VIS
nmi
5-day plot - Tide (above MLLW)
TIDE
ft
2024-04-18 12:50 pm W 2.9 7.0----30.06- 59.2-----
2024-04-18 12:40 pmWNW 5.1 11.1----30.06- 57.6-----
2024-04-18 12:30 pm W 7.0 9.9----30.05- 57.4-----
2024-04-18 12:20 pm NW 7.0 8.9----30.06- 57.0-----
2024-04-18 12:10 pmWNW 7.0 13.0----30.06- 56.5-----
2024-04-18 12:00 pm W 4.1 12.0----30.06+0.03 56.7-----
2024-04-18 11:50 am W 4.1 11.1----30.06- 55.4-----
2024-04-18 11:40 amWNW 7.0 13.0----30.06- 55.4-----
2024-04-18 11:30 am NW 6.0 13.0----30.06- 55.0-----
2024-04-18 11:20 amWNW 8.9 14.0----30.05- 55.4-----
2024-04-18 11:10 amWNW 13.0 17.1----30.06- 55.4-----
2024-04-18 11:00 amWNW 9.9 15.9----30.05+0.04 55.6-----
2024-04-18 10:50 am W 12.0 15.9----30.06- 55.2-----
2024-04-18 10:40 am W 11.1 17.1----30.06- 54.9-----
2024-04-18 10:30 am W 9.9 15.9----30.06- 54.7-----
2024-04-18 10:20 am W 12.0 17.1----30.06- 54.5-----
2024-04-18 10:10 am W 12.0 15.0----30.05- 54.0-----
2024-04-18 10:00 amWSW 11.1 17.1----30.04+0.08 54.0-----
2024-04-18 09:50 am W 12.0 17.1----30.04- 54.0-----
2024-04-18 09:40 am W 12.0 17.1----30.04- 53.8-----
2024-04-18 09:30 am W 11.1 17.1----30.03- 53.2-----
2024-04-18 09:20 am W 12.0 15.9----30.04- 53.2-----
2024-04-18 09:10 am W 11.1 15.0----30.03- 53.4-----
2024-04-18 09:00 am W 12.0 22.0----30.03- 53.2-----
2024-04-18 08:50 am W 13.0 17.1----30.02- 53.1-----
2024-04-18 08:40 am W 11.1 14.0----30.02- 53.1-----
2024-04-18 08:30 am W 13.0 18.1----30.01- 52.9-----
2024-04-18 08:20 am W 12.0 15.9----30.01- 53.1-----
2024-04-18 08:10 am W 9.9 15.9----30.01- 52.5-----
2024-04-18 08:00 amWNW 11.1 17.1----30.01+0.09 52.3-----
2024-04-18 07:50 amWNW 12.0 22.0----30.02- 52.3-----
2024-04-18 07:40 amWNW 15.0 21.0----30.01- 52.5-----
2024-04-18 07:30 am W 14.0 20.0----30.00- 52.5-----
2024-04-18 07:20 am W 12.0 21.0----29.98- 52.5-----
2024-04-18 07:10 am W 12.0 15.9----29.98- 52.5-----
2024-04-18 07:00 am W 11.1 15.0----29.96+0.05 52.3-----
2024-04-18 06:50 am W 8.9 13.0----29.96- 52.3-----
2024-04-18 06:40 am W 11.1 15.0----29.95- 52.5-----
2024-04-18 06:30 am W 12.0 15.9----29.95- 52.5-----
2024-04-18 06:20 am W 11.1 15.0----29.94- 52.7-----
2024-04-18 06:10 am W 8.9 13.0----29.94- 52.7-----
2024-04-18 06:00 am W 9.9 13.0----29.94+0.05 52.9-----
2024-04-18 05:50 am W 8.0 12.0----29.93- 52.9-----
2024-04-18 05:40 am W 8.0 12.0----29.93- 52.9-----
2024-04-18 05:30 am W 6.0 12.0----29.93- 52.9-----
2024-04-18 05:20 am W 8.0 15.0----29.93- 53.1-----
2024-04-18 05:10 am W 8.9 12.0----29.93- 53.2-----
2024-04-18 05:00 am W 8.9 13.0----29.92+0.05 53.6-----
2024-04-18 04:50 am W 8.0 17.1----29.92- 54.0-----
2024-04-18 04:40 am W 9.9 15.9----29.92- 54.1-----
2024-04-18 04:30 am W 9.9 15.0----29.92- 54.3-----
2024-04-18 04:20 am W 11.1 17.1----29.91- 54.5-----
2024-04-18 04:10 am W 12.0 17.1----29.91- 54.9-----
2024-04-18 04:00 am W 12.0 18.1----29.91+0.06 55.0-----
2024-04-18 03:50 am W 11.1 19.0----29.91- 55.2-----
2024-04-18 03:40 am W 7.0 11.1----29.91- 55.6-----
2024-04-18 03:30 am W 8.0 11.1----29.90- 55.6-----
2024-04-18 03:20 am W 8.0 15.9----29.90- 55.8-----
2024-04-18 03:10 am W 8.9 15.0----29.89- 55.9-----
2024-04-18 03:00 am W 8.9 15.9----29.89+0.06 56.1-----
2024-04-18 02:50 am W 8.9 13.0----29.89- 56.5-----
2024-04-18 02:40 am W 9.9 18.1----29.88- 56.8-----
2024-04-18 02:30 am W 13.0 21.0----29.88- 57.0-----
2024-04-18 02:20 am W 8.0 17.1----29.88- 57.4-----
2024-04-18 02:10 am W 11.1 18.1----29.87- 57.6-----
2024-04-18 02:00 am W 11.1 17.1----29.87+0.05 57.6-----
2024-04-18 01:50 am W 8.9 13.0----29.87- 57.6-----
2024-04-18 01:40 am W 9.9 17.1----29.87- 57.7-----
2024-04-18 01:30 am W 8.9 15.9----29.86- 57.7-----
2024-04-18 01:20 am W 11.1 19.0----29.86- 57.9-----
2024-04-18 01:10 am W 14.0 20.0----29.86- 58.1-----
2024-04-18 01:00 am W 13.0 20.0----29.85+0.04 58.1-----
2024-04-18 12:50 amWSW 12.0 15.9----29.85- 58.1-----
2024-04-18 12:40 amWSW 8.9 15.0----29.85- 58.1-----
2024-04-18 12:30 amWSW 6.0 12.0----29.84- 58.1-----
2024-04-18 12:20 amWSW 7.0 9.9----29.84- 58.5-----
2024-04-18 12:10 amWSW 8.0 15.0----29.84- 58.8-----
2024-04-18 12:00 amWSW 8.9 13.0----29.83+0.04 58.6-----
2024-04-17 11:50 pmWSW 7.0 12.0----29.83- 58.8-----
2024-04-17 11:40 pmWSW 8.9 12.0----29.83- 59.2-----
2024-04-17 11:30 pmWSW 8.0 15.9----29.82- 59.4-----
2024-04-17 11:20 pmWSW 13.0 18.1----29.82- 59.7-----
2024-04-17 11:10 pmWSW 11.1 17.1----29.82- 59.7-----
2024-04-17 11:00 pmWSW 9.9 14.0----29.82+0.05 59.5-----
2024-04-17 10:50 pmWSW 8.0 14.0----29.82- 59.7-----
2024-04-17 10:40 pm SW 6.0 9.9----29.82- 59.4-----
2024-04-17 10:30 pm SW 5.1 9.9----29.82- 59.7-----
2024-04-17 10:20 pmWSW 7.0 11.1----29.81- 59.9-----
2024-04-17 10:10 pm SW 6.0 11.1----29.81- 59.9-----
2024-04-17 10:00 pmWSW 4.1 8.0----29.81+0.07 59.5-----
2024-04-17 09:50 pmWSW 2.9 7.0----29.81- 60.1-----
2024-04-17 09:40 pmWSW 6.0 8.9----29.81- 60.3-----
2024-04-17 09:30 pmWSW 4.1 6.0----29.80- 60.4-----
2024-04-17 09:20 pmWSW 5.1 7.0----29.80- 60.8-----
2024-04-17 09:10 pmWSW 7.0 9.9----29.79- 61.2-----
2024-04-17 09:00 pm W 6.0 8.9----29.79+0.08 61.3-----
2024-04-17 08:50 pm W 6.0 9.9----29.79- 61.3-----
2024-04-17 08:40 pm W 6.0 13.0----29.78- 61.5-----
2024-04-17 08:30 pm W 7.0 13.0----29.78- 61.5-----
2024-04-17 08:20 pm W 6.0 11.1----29.78- 61.5-----
2024-04-17 08:10 pm W 7.0 14.0----29.77- 59.7-----
2024-04-17 08:00 pmWSW 7.0 14.0----29.77+0.08 59.4-----
2024-04-17 07:50 pmWSW 5.1 8.9----29.76- 59.2-----
2024-04-17 07:40 pm SW 1.0 4.1----29.76- 59.4-----
2024-04-17 07:30 pm- 0.0 1.9----29.75- 59.0-----
2024-04-17 07:20 pm- 0.0 2.9----29.75- 58.8-----
2024-04-17 07:10 pm- 0.0 5.1----29.74- 58.6-----
2024-04-17 07:00 pm S 4.1 6.0----29.74+0.10 57.9-----
2024-04-17 06:50 pmSSE 5.1 6.0----29.73- 57.4-----
2024-04-17 06:40 pmSSE 1.9 4.1----29.72- 58.8-----
2024-04-17 06:30 pm- 0.0 0.0----29.72- 58.3-----
2024-04-17 06:20 pm- 0.0 0.0----29.72- 58.3-----
2024-04-17 06:10 pm- 0.0 5.1----29.71- 58.3-----
2024-04-17 06:00 pmWNW 2.9 5.1----29.71+0.05 58.6-----
2024-04-17 05:50 pm- 0.0 2.9----29.70- 59.0-----
2024-04-17 05:40 pm- 0.0 2.9----29.70- 59.5-----
2024-04-17 05:30 pm NW 1.0 2.9----29.70- 59.9-----
2024-04-17 05:20 pm NW 1.9 7.0----29.69- 59.9-----
2024-04-17 05:10 pmWNW 5.1 7.0----29.69- 59.7-----
2024-04-17 05:00 pm W 4.1 8.9----29.69-0.01 59.5-----
2024-04-17 04:50 pm W 7.0 13.0----29.68- 59.5-----
2024-04-17 04:40 pm W 8.9 19.0----29.68- 59.5-----
2024-04-17 04:30 pmWSW 12.0 22.0----29.68- 59.4-----
2024-04-17 04:20 pm SW 15.9-----29.68- 59.2-----
2024-04-17 04:10 pmWSW 20.0 24.1----29.67- 67.1-----
2024-04-17 04:00 pm S 11.1 19.0----29.64-0.09 66.0-----
2024-04-17 03:50 pmSSE 8.9 15.0----29.63- 65.5-----
2024-04-17 03:40 pmSSE 8.9 13.0----29.64- 62.8-----
2024-04-17 03:30 pm SE 5.1 8.0----29.64- 57.9-----
2024-04-17 03:20 pm SE 8.9 9.9----29.64- 58.8-----
2024-04-17 03:10 pm SE 8.0 12.0----29.65- 57.9-----
2024-04-17 03:00 pm SE 11.1 15.0----29.66-0.12 57.6-----
2024-04-17 02:50 pmESE 13.0 15.0----29.66- 56.8-----
2024-04-17 02:40 pmESE 15.0 20.0----29.66- 56.7-----
2024-04-17 02:30 pm E 12.0 15.0----29.68- 56.5-----
2024-04-17 02:20 pmESE 13.0 15.9----29.69- 56.1-----
2024-04-17 02:10 pmESE 13.0 15.9----29.70- 55.9-----
2024-04-17 02:00 pm E 13.0 15.9----29.70-0.11 55.0-----
2024-04-17 01:50 pmESE 15.0 17.1----29.71- 54.5-----
2024-04-17 01:40 pm E 14.0 18.1----29.72- 54.7-----
2024-04-17 01:30 pmESE 15.0 18.1----29.72- 54.3-----
2024-04-17 01:20 pm E 15.9 19.0----29.73- 54.0-----
2024-04-17 01:10 pmESE 17.1 20.0----29.73- 53.8-----
2024-04-17 01:00 pmESE 17.1 20.0----29.73- 53.2-----
2024-04-17 12:50 pm E 15.9 19.0----29.74- 53.4-----